Content
SEND FEEDBACK

Daily
Averages
Monthly
Summary
United States of America

LAFAYETTE, VIRGINIA


Home > North America > United States > Virginia
Elevation: 128 feet     Latitude: 37 14N     Longitude: 080 13W

WEATHER
 
SELECT A DAY
Number of Records: 442,027;   Date Range: 1/1/95 - 8/30/14
 
SHARE

PRINT THIS DATA

[ ← Previous Day ]
WEATHER ALMANAC - FEBRUARY 12, 2014
[ Next Day → ]
[ °C ]   °F
Weather ElementAverageHighLow
Temperature19.1 °F21.2 °F (12:35 am)17.6 °F (5:55 am)
Dewpoint14.9 °F19.4 °F (9:15 pm)10.4 °F (6:15 am)
Humidity84.7 %100 % (2:35 pm)68 % (9:55 am)
Barometer30.21 in30.35 in (9:15 am)29.91 in (11:55 pm)
Wind Speed6.9 mph10.4 mph (7:15 am)
Weather ElementAverage
Visibility5.9 mi
Wind DirectionENE (81.8 °)

Weather ElementTotal
Precipitation---
Heating Degree Days45.6 (Base 65)
Averaged from 71 records on February 12, 2014
WEATHER CONDITIONS BREAKOUT
WIND DIRECTION BREAKOUT
WEATHER BY HOUR - FEBRUARY 12, 2014
[ °C ]   °F
Local TimeTemperatureDewpointHumidityBarometerVisibilityWind DirectionWind SpeedGust SpeedPrecipitationEventsConditions
12:35 AM21.2 °F15.8 °F80 %30.32 in10.0 miESE (110°)3.5 mphClear
12:55 AM19.4 °F15.8 °F86 %30.32 in10.0 miESE (110°)4.6 mphClear
1:15 AM21.2 °F15.8 °F80 %30.33 in10.0 miESE (110°)5.8 mphClear
1:35 AM21.2 °F15.8 °F80 %30.32 in10.0 miEast (100°)6.9 mphClear
1:55 AM21.2 °F15.8 °F80 %30.32 in10.0 miEast (100°)5.8 mphClear
2:15 AM21.2 °F14.0 °F74 %30.32 in10.0 miEast (90°)8.1 mphClear
2:35 AM19.4 °F14.0 °F80 %30.32 in10.0 miESE (110°)6.9 mphClear
2:55 AM19.4 °F12.2 °F74 %30.32 in10.0 miEast (100°)4.6 mphClear
3:15 AM19.4 °F12.2 °F74 %30.32 in10.0 miEast (80°)4.6 mphClear
3:35 AM19.4 °F12.2 °F74 %30.32 in10.0 miEast (90°)4.6 mphClear
3:55 AM19.4 °F12.2 °F74 %30.33 in10.0 miESE (110°)4.6 mphClear
4:15 AM19.4 °F12.2 °F74 %30.33 in10.0 miESE (110°)5.8 mphClear
4:35 AM19.4 °F12.2 °F74 %30.32 in10.0 miESE (120°)3.5 mphClear
4:55 AM19.4 °F12.2 °F74 %30.32 in10.0 miEast (100°)3.5 mphClear
5:15 AM19.4 °F12.2 °F74 %30.32 in10.0 miEast (90°)5.8 mphClear
5:35 AM19.4 °F12.2 °F74 %30.32 in10.0 miEast (90°)5.8 mphClear
5:55 AM17.6 °F12.2 °F79 %30.31 in10.0 miEast (90°)4.6 mphClear
6:15 AM17.6 °F10.4 °F73 %30.31 in10.0 miEast (80°)9.2 mphClear
6:35 AM17.6 °F10.4 °F73 %30.29 in10.0 miEast (90°)6.9 mphClear
6:55 AM17.6 °F10.4 °F73 %30.30 in10.0 miEast (100°)8.1 mphClear
7:15 AM17.6 °F10.4 °F73 %30.31 in10.0 miEast (90°)10.4 mphClear
7:35 AM17.6 °F10.4 °F73 %30.32 in10.0 miEast (100°)6.9 mphClear
7:55 AM17.6 °F12.2 °F79 %30.32 in10.0 miEast (100°)4.6 mphClear
8:15 AM19.4 °F12.2 °F74 %30.32 in10.0 miEast (90°)4.6 mphClear
8:35 AM19.4 °F12.2 °F74 %30.31 in10.0 miEast (90°)9.2 mphClear
8:55 AM19.4 °F12.2 °F74 %30.31 in10.0 miEast (90°)6.9 mphClear
9:15 AM19.4 °F12.2 °F74 %30.35 in10.0 miSE (140°)5.8 mphClear
9:35 AM19.4 °F12.2 °F74 %30.34 in10.0 miEast (100°)6.9 mphClear
9:55 AM21.2 °F12.2 °F68 %30.33 in10.0 miESE (110°)9.2 mphClear
10:15 AM21.2 °F12.2 °F68 %30.33 in10.0 miESE (120°)5.8 mphClear
10:35 AM21.2 °F12.2 °F68 %30.32 in10.0 miSSE (150°)6.9 mphScattered Clouds
10:55 AM21.2 °F12.2 °F68 %30.31 in10.0 miSSE (150°)6.9 mphScattered Clouds
11:15 AM21.2 °F12.2 °F68 %30.30 in10.0 miSE (130°)5.8 mphScattered Clouds
11:35 AM21.2 °F12.2 °F68 %30.29 in10.0 miEast (100°)8.1 mphClear
11:55 AM21.2 °F12.2 °F68 %30.28 in10.0 miEast (80°)8.1 mphClear
12:15 PM21.2 °F12.2 °F68 %30.27 in10.0 miNE (50°)8.1 mphClear
12:35 PM21.2 °F12.2 °F68 %30.26 in10.0 miEast (80°)5.8 mphScattered Clouds
12:55 PM21.2 °F12.2 °F68 %30.26 in10.0 miEast (90°)9.2 mphScattered Clouds
1:15 PM21.2 °F12.2 °F68 %30.25 in10.0 miEast (80°)5.8 mphMostly Cloudy
1:35 PM21.2 °F12.2 °F68 %30.24 in7.0 miEast (80°)10.4 mphSnowLight Snow
1:55 PM19.4 °F15.8 °F86 %30.22 in1.2 miEast (80°)9.2 mphSnowLight Snow
2:15 PM19.4 °F17.6 °F93 %30.22 in0.5 miENE (60°)5.8 mphSnowLight Snow
2:35 PM17.6 °F17.6 °F100 %30.20 in0.8 miENE (70°)6.9 mphSnowLight Snow
2:55 PM17.6 °F17.6 °F100 %30.19 in0.5 miENE (60°)4.6 mphSnowLight Snow
3:15 PM17.6 °F17.6 °F100 %30.18 in0.5 miENE (60°)6.9 mphSnowSnow
3:35 PM17.6 °F17.6 °F100 %30.17 in0.8 miENE (60°)5.8 mphSnowLight Snow
3:55 PM17.6 °F17.6 °F100 %30.16 in0.5 miENE (70°)6.9 mphSnowLight Snow
4:15 PM17.6 °F17.6 °F100 %30.16 in0.8 miENE (70°)8.1 mphSnowLight Snow
4:35 PM17.6 °F17.6 °F100 %30.14 in0.8 miENE (70°)5.8 mphSnowLight Snow
4:55 PM17.6 °F17.6 °F100 %30.13 in0.5 miENE (60°)6.9 mphSnowSnow
5:15 PM17.6 °F17.6 °F100 %30.12 in0.5 miNE (50°)5.8 mphSnowSnow
5:35 PM17.6 °F17.6 °F100 %30.11 in0.2 miENE (60°)9.2 mphSnowSnow
5:55 PM17.6 °F17.6 °F100 %30.11 in0.5 miENE (70°)8.1 mphSnowSnow
6:15 PM17.6 °F17.6 °F100 %30.10 in0.5 miENE (70°)6.9 mphSnowSnow
6:35 PM17.6 °F17.6 °F100 %30.09 in0.5 miNE (50°)8.1 mphSnowSnow
6:55 PM17.6 °F17.6 °F100 %30.08 in0.5 miNE (50°)9.2 mphSnowLight Snow
7:15 PM17.6 °F17.6 °F100 %30.07 in0.5 miENE (60°)8.1 mphSnowSnow
7:35 PM17.6 °F17.6 °F100 %30.06 in0.2 miNE (50°)8.1 mphSnowSnow
7:55 PM17.6 °F17.6 °F100 %30.05 in0.2 miENE (60°)9.2 mphSnowSnow
8:15 PM17.6 °F17.6 °F100 %30.04 in1.2 miNE (50°)8.1 mphSnowLight Snow
8:35 PM17.6 °F17.6 °F100 %30.03 in1.0 miNE (50°)9.2 mphSnowSnow
8:55 PM17.6 °F17.6 °F100 %30.02 in1.2 miNE (50°)9.2 mphSnowLight Snow
9:15 PM19.4 °F19.4 °F100 %30.00 in0.8 miNE (50°)9.2 mphSnowSnow
9:35 PM19.4 °F19.4 °F100 %30.00 in1.2 miNE (40°)8.1 mphSnowLight Snow
9:55 PM19.4 °F19.4 °F100 %29.99 in1.0 miNE (50°)10.4 mphSnowSnow
10:15 PM19.4 °F19.4 °F100 %29.98 in0.5 miNE (50°)4.6 mphSnowSnow
10:35 PM19.4 °F19.4 °F100 %29.97 in0.2 miNE (50°)4.6 mphSnowHeavy Snow
10:55 PM19.4 °F19.4 °F100 %29.94 in0.8 miNE (40°)6.9 mphSnowSnow
11:15 PM19.4 °F19.4 °F100 %29.94 in0.8 miEast (90°)4.6 mphSnowSnow
11:35 PM19.4 °F19.4 °F100 %29.92 in0.8 miNE (50°)8.1 mphSnowSnow
11:55 PM19.4 °F19.4 °F100 %29.91 in0.8 miENE (60°)6.9 mphSnowSnow
Hourly data recorded from KBCB, located miles away from Lafayette, Virginia







STORIES FROM OUR PARTNERS